Vorticity
4 2 2 2 3 2 5 2 -0 5 2 4 8 2 2 3 6 8 2 6 11 12 8 -6 6 21 16 7 2 -3 -13 1 11 -5 -6 1 -0 -7 -2 8 8 7 8 3 1 2 1 2 4 4 6 8 7 6 6 7 6 6 6 5 4 4 3 4 4 4 5 6 8 8 7 7 7 6 6 6 6 6 6 5 4 4 4 4 4 4 4 4 4 4 4 4 5 5 5 5 5
5 4 3 3 4 1 4 5 -1 4 3 0 8 8 4 0 -0 6 2 1 10 13 12 -9 -23 2 14 4 1 3 0 -2 6 9 0 -3 -2 2 6 5 5 7 8 5 2 3 2 2 3 3 4 7 9 9 7 7 7 6 7 6 4 4 3 3 4 4 5 7 8 8 7 6 7 7 6 7 6 5 5 4 4 5 4 4 4 4 3 4 3 3 4 4 5 5 5 6 5
7 5 4 4 4 2 2 7 2 2 6 -1 -2 6 8 5 3 7 8 4 10 6 7 21 6 0 18 23 20 10 7 8 5 7 6 7 3 -3 -1 -9 -9 4 9 7 3 4 4 2 4 5 2 4 8 9 9 8 7 7 7 6 4 3 3 4 4 4 4 6 8 7 7 7 6 7 7 6 6 5 4 4 5 5 4 4 4 4 2 2 3 3 4 4 5 5 5 5 5
11 7 7 5 5 5 1 7 7 3 8 3 -2 0 1 7 3 -6 10 15 15 18 10 22 20 0 3 5 9 10 6 7 5 6 3 5 11 6 3 -6 -13 -4 4 3 1 2 5 4 4 6 4 3 7 7 8 9 8 8 7 6 4 3 3 4 4 5 5 5 7 7 6 7 6 7 7 6 5 4 4 5 5 5 4 4 3 3 2 2 3 3 4 5 6 5 5 5 4
12 10 9 7 6 7 4 7 8 10 9 6 6 3 1 7 6 -10 -4 9 7 13 9 -1 1 7 15 6 -0 8 8 5 5 9 4 -5 3 6 3 6 3 -1 6 10 2 -1 3 4 3 5 5 3 5 7 6 7 8 8 8 7 6 5 4 4 4 4 5 5 6 7 6 7 7 7 8 6 4 3 4 5 5 5 4 3 3 3 3 3 3 4 4 5 6 6 5 4 4
11 11 11 9 8 7 8 9 8 10 5 7 9 1 5 3 11 14 -11 -6 8 5 16 14 1 1 8 13 8 14 18 13 12 7 3 1 5 10 5 7 16 8 7 15 10 3 2 3 4 3 4 4 4 5 6 5 6 7 6 7 8 6 4 5 4 5 5 6 7 6 7 7 8 8 8 7 4 2 3 5 6 5 4 3 3 3 3 4 4 4 5 6 5 6 5 4 4
10 10 9 9 10 7 9 10 11 11 5 10 11 2 10 10 12 25 -5 -16 11 17 30 29 16 11 -2 3 2 2 7 1 4 1 2 5 -1 8 14 9 12 6 3 12 12 6 4 4 5 4 3 3 4 4 5 4 4 6 5 6 9 6 5 7 6 6 5 7 8 7 8 9 9 9 9 7 3 2 3 4 7 6 4 3 2 3 3 4 4 4 5 6 5 5 4 3 3
8 10 8 8 10 9 9 8 10 11 11 11 11 8 14 21 14 21 20 -7 -17 -15 -8 -9 -0 18 8 8 6 -3 3 2 2 5 6 10 6 8 14 4 -6 -4 2 10 8 4 5 6 4 4 4 2 3 3 4 5 4 5 5 5 9 9 7 6 4 4 6 6 8 7 7 8 8 10 10 8 4 2 2 4 6 7 5 3 3 2 3 4 4 5 5 6 6 5 4 3 3
6 9 8 6 7 8 9 8 9 7 10 12 10 10 4 12 8 11 32 11 -15 -25 -28 -24 -23 -15 -13 -4 4 -3 2 8 10 12 6 6 8 10 22 18 13 22 18 8 5 5 3 4 6 3 3 3 3 4 4 6 5 4 5 5 7 9 6 1 -1 -1 2 5 6 7 7 8 8 10 10 8 5 2 2 4 6 7 5 3 3 2 2 4 4 4 5 6 5 4 3 3 3
6 8 8 6 5 5 8 7 9 7 6 9 10 15 11 10 7 7 16 2 4 2 -14 -12 -20 -20 -10 -3 6 -1 -9 -3 6 12 7 6 4 -2 7 4 11 30 21 11 8 8 6 2 5 5 3 1 1 3 5 6 6 5 4 6 6 4 3 2 4 2 -0 3 5 6 7 8 8 9 10 7 5 2 2 5 6 7 5 3 3 3 2 3 4 4 5 6 5 4 3 3 3
8 8 9 6 4 3 6 4 4 6 5 6 6 11 17 17 8 7 9 0 8 14 5 8 10 15 13 1 6 5 -4 -4 -2 2 3 8 8 -0 -0 -5 0 2 -8 2 5 2 7 5 4 4 4 1 0 1 2 5 6 5 5 6 5 3 4 6 10 9 3 2 5 6 7 8 7 7 8 7 5 2 2 5 7 7 4 4 3 2 3 3 4 4 5 5 4 3 3 3 3
9 9 9 7 8 5 4 6 4 4 6 9 10 8 10 13 8 2 6 14 16 17 17 9 -0 9 15 0 -2 5 4 6 0 0 10 6 -0 -0 4 10 12 4 -6 2 7 5 3 4 6 4 4 3 1 1 0 3 4 5 6 6 6 4 5 5 5 7 5 3 4 5 6 6 6 6 6 5 4 3 3 6 8 7 4 3 3 2 3 3 5 5 6 5 3 3 3 3 2
8 9 7 6 8 8 6 5 5 5 5 5 7 11 11 10 20 16 4 6 5 6 15 15 6 4 22 24 12 8 0 5 4 -7 3 7 7 10 5 4 3 4 9 8 11 12 2 1 5 5 5 5 4 4 2 2 4 5 5 6 7 6 4 5 5 6 8 4 1 2 4 5 5 5 7 6 4 4 4 8 9 7 5 3 2 2 3 4 5 6 6 5 3 3 3 3 3
8 9 7 6 6 8 9 7 6 6 5 2 0 5 11 6 9 16 14 16 17 17 7 5 17 7 8 25 21 17 7 2 5 -5 -2 7 10 10 9 11 3 -1 12 12 8 4 2 3 2 4 5 6 7 6 6 4 4 5 6 6 6 8 6 6 6 7 10 7 4 6 6 5 5 6 7 8 6 7 6 9 10 6 4 3 2 2 3 5 5 6 5 4 3 4 4 2 4
9 10 6 5 7 6 6 8 7 8 7 6 2 -3 11 18 8 3 3 6 15 30 18 -4 6 7 3 12 9 12 20 18 20 13 -1 0 -1 -0 8 15 8 2 6 -3 -7 -0 7 7 0 4 6 6 9 7 7 6 5 5 6 8 7 6 6 7 7 6 8 7 7 10 10 8 7 7 7 8 8 9 9 10 10 6 4 2 2 3 4 5 6 6 4 4 3 3 3 3 4
10 9 7 5 8 8 8 8 4 9 11 19 23 0 -0 17 15 10 4 -9 -18 -6 11 10 6 10 10 3 -1 5 13 11 19 27 12 4 3 5 5 3 6 3 3 -5 -6 8 9 8 5 3 5 5 8 7 7 7 8 6 6 10 10 6 4 6 7 7 6 4 7 9 10 9 8 8 7 9 9 10 11 11 10 5 3 2 2 4 4 5 6 6 4 4 3 2 2 3 5
10 6 6 6 8 10 9 9 7 8 4 14 28 12 1 5 7 12 20 15 -4 -12 -2 14 15 10 11 1 -0 6 7 -0 -2 12 17 14 6 3 -0 -4 5 2 8 13 5 12 6 5 10 5 5 6 6 5 4 7 8 7 5 8 11 9 6 7 9 11 9 6 8 9 9 10 9 10 9 9 9 11 12 10 10 5 3 2 2 4 5 6 7 6 4 3 3 2 3 5 6
8 7 8 7 11 12 9 12 12 13 6 0 6 9 9 11 17 14 26 38 19 13 9 9 15 2 4 13 11 4 2 5 -1 -5 -4 6 8 3 2 -0 6 8 26 32 14 25 21 6 8 6 5 3 5 3 1 7 10 7 5 7 10 11 9 8 17 18 12 10 9 8 8 8 9 10 9 9 10 11 11 10 8 4 2 3 2 5 6 5 6 6 4 3 3 2 3 5 7
8 8 12 10 11 9 10 13 7 6 -1 5 20 10 -2 10 30 11 3 29 20 18 22 20 24 5 -3 7 17 13 3 6 8 7 0 2 11 8 6 5 5 4 16 23 10 12 8 3 5 2 3 1 2 3 2 8 12 8 6 10 10 10 10 7 18 20 10 8 8 7 7 7 7 8 8 9 10 10 9 8 5 3 1 3 3 4 6 5 6 6 3 2 2 2 2 4 7
14 14 15 12 15 12 13 17 12 12 -11 -10 24 10 -10 1 31 22 -19 -10 5 4 7 16 29 25 15 4 12 18 9 15 12 11 11 4 7 11 9 5 10 4 -7 -2 4 3 -4 4 9 0 3 2 1 2 3 8 10 9 8 12 11 8 8 6 14 17 8 5 5 6 5 5 4 4 6 7 8 8 7 5 3 2 -0 1 4 5 6 5 5 5 3 3 2 2 2 5 8
17 16 17 13 15 11 15 18 14 35 23 -5 7 12 7 -8 6 39 18 5 16 8 0 5 12 14 12 7 17 21 5 7 9 8 14 12 7 9 11 5 5 6 1 0 5 13 11 12 15 9 7 0 1 5 1 3 6 7 9 12 11 7 5 6 10 11 9 7 4 5 3 2 1 1 4 4 5 5 4 4 2 2 1 1 5 6 6 4 6 5 3 2 2 3 3 4 8
16 10 15 18 19 18 19 10 -7 14 32 8 1 13 12 -11 -18 5 13 12 1 -4 10 11 10 10 6 5 8 22 21 3 -1 4 9 18 16 6 7 11 8 4 11 9 -7 1 9 4 7 12 16 7 0 3 0 0 2 4 8 13 11 5 6 7 6 7 7 7 5 4 3 1 4 5 4 2 3 2 2 3 3 3 2 2 4 6 5 4 6 5 3 3 2 3 4 4 6
13 15 22 27 24 28 25 6 -10 -10 3 2 1 6 -2 -11 -14 -25 -20 -2 -19 -25 -5 -6 3 5 2 20 8 2 20 9 2 4 -3 2 11 14 12 10 12 4 6 14 8 9 3 -7 -1 6 19 23 7 -1 -2 -4 -1 0 2 16 19 6 6 8 4 5 4 5 6 4 4 5 7 6 2 2 2 2 2 3 3 3 3 3 4 6 6 4 6 5 3 2 2 3 4 4 6
18 20 23 28 18 17 23 12 7 -6 -15 -5 0 2 -2 -4 -1 -8 -9 4 -2 -15 -16 -16 -6 -20 -31 5 5 -14 -2 2 6 9 5 -3 -11 5 15 10 11 4 5 16 17 14 7 0 3 -2 2 21 16 1 -2 -3 -2 -1 -3 10 27 15 5 8 3 3 4 4 5 5 6 7 6 4 1 2 3 2 2 2 3 3 3 4 5 7 6 4 5 5 3 2 2 3 4 5 6
21 24 24 18 10 9 29 31 27 16 2 6 4 -2 -1 -3 -3 3 1 -1 5 -0 -7 -2 10 1 -10 2 -1 -3 7 3 1 -3 6 15 6 4 7 9 9 3 7 12 5 -3 6 12 2 -3 -7 0 15 11 3 3 1 2 -1 2 20 24 10 5 2 1 5 5 6 7 7 6 4 4 3 3 3 3 3 2 4 4 4 5 6 7 6 5 5 4 2 1 2 2 3 4 6
0 23 19 -3 -6 -4 22 30 25 24 19 18 13 11 12 15 14 14 13 9 11 12 10 9 14 9 -2 2 0 1 10 8 7 -1 -8 -4 5 11 8 12 13 6 1 7 16 0 3 20 7 6 5 -12 1 20 10 3 4 4 3 0 6 19 14 4 2 1 3 5 6 5 5 5 3 3 4 3 4 4 4 4 5 5 5 5 6 6 6 5 4 4 2 1 2 3 4 4 5
-6 13 11 8 7 -1 14 21 19 21 22 20 16 21 18 19 26 22 20 26 25 19 16 7 5 2 -13 -2 7 -1 2 4 6 13 8 -12 -13 -2 -5 -2 5 8 2 1 20 6 2 36 33 14 8 -10 -12 10 14 2 2 3 2 3 1 9 16 10 2 1 3 5 6 6 6 6 5 5 4 4 5 6 6 6 5 5 6 5 5 6 6 6 4 3 2 1 2 3 4 4 5
15 16 9 19 17 11 15 11 16 18 18 20 14 17 17 18 23 25 28 32 29 14 10 8 5 9 5 9 15 11 11 10 3 7 15 4 0 6 -5 -8 -3 3 4 2 13 3 -16 4 30 26 6 6 10 11 20 10 -1 2 0 1 3 4 14 18 8 1 3 6 7 8 7 7 6 5 4 5 5 6 7 6 6 5 6 6 5 5 6 6 5 3 2 1 2 2 3 4 4
21 18 11 16 15 20 23 16 20 17 18 24 17 15 21 24 15 25 39 18 4 9 13 17 15 19 19 15 19 19 13 12 10 7 10 9 9 11 1 -1 4 6 8 3 6 11 -9 -31 -6 27 8 6 21 6 12 20 8 7 4 -1 2 5 11 18 14 6 4 7 10 9 7 6 6 5 4 5 5 5 6 6 6 5 6 6 5 5 6 6 5 2 2 2 2 2 3 3 4
18 18 17 18 10 16 23 16 19 16 9 9 17 24 21 21 18 25 34 7 -3 18 20 17 18 18 14 7 7 8 5 4 5 4 8 10 8 7 4 4 5 10 14 7 3 9 16 -6 -14 15 14 5 14 -1 -6 13 18 17 17 10 2 1 9 15 14 9 7 8 10 8 6 5 3 4 5 5 5 5 5 6 6 5 5 6 5 4 5 6 5 2 1 1 2 2 3 3 3
15 12 12 10 -1 15 21 -8 -3 16 10 9 21 18 -2 13 39 31 17 13 19 24 18 19 19 13 9 8 8 8 10 11 11 11 9 7 7 3 6 10 4 2 7 10 11 8 12 12 -1 4 10 6 12 10 -1 1 15 20 14 12 8 3 8 16 16 10 7 9 9 7 5 5 2 3 5 5 5 4 5 6 6 5 5 5 6 5 5 6 5 2 1 1 2 3 4 4 3
12 4 2 13 6 13 20 -3 6 20 8 24 34 2 -14 10 26 10 -4 4 16 16 15 20 19 17 18 20 23 21 20 21 18 17 15 11 12 6 3 13 10 2 4 4 7 11 8 8 7 2 1 3 4 11 15 3 6 17 9 6 8 3 5 13 17 10 6 9 9 7 5 4 3 3 6 6 5 4 4 5 5 4 5 5 5 5 5 5 4 3 2 2 3 3 5 4 3
11 10 -0 14 8 -2 13 9 13 18 -4 8 22 -7 -11 9 -2 -7 5 7 10 17 21 21 17 16 15 14 17 16 17 19 15 14 17 15 14 10 2 9 13 6 8 9 3 6 11 9 7 3 -1 6 4 2 19 15 2 10 12 10 9 1 -1 6 12 10 7 11 11 8 6 4 4 4 6 6 4 5 4 4 5 4 5 5 4 5 5 4 3 3 3 2 3 3 5 5 4
8 19 3 4 7 3 13 -2 -5 27 22 6 16 2 -12 -6 -10 1 18 15 18 26 23 20 19 17 15 15 16 14 13 14 15 15 16 17 16 13 4 4 10 7 6 11 9 2 5 10 9 9 1 5 10 -5 2 16 8 2 2 12 18 7 -2 -2 10 15 10 11 10 7 7 5 6 6 6 6 4 5 5 5 5 5 5 4 4 4 4 4 2 2 2 2 3 4 4 5 5
1 11 3 4 12 7 9 6 0 12 11 1 13 14 2 -5 -16 -6 13 11 12 19 16 13 13 15 16 18 18 19 18 12 10 8 5 9 12 10 5 3 8 11 7 7 13 6 2 7 7 11 6 -0 7 -3 -10 0 5 5 1 5 11 11 7 -3 4 18 14 10 7 5 9 6 6 8 6 6 5 5 5 5 5 5 6 5 4 3 2 3 2 1 2 2 3 4 4 4 6
9 7 2 8 12 5 6 14 6 -7 -5 2 6 7 10 10 -7 -8 4 2 2 9 10 11 11 11 10 8 6 9 13 6 5 6 7 13 17 14 10 9 11 12 12 9 11 11 5 7 6 9 10 1 1 1 -1 -3 -3 7 9 5 5 13 20 6 -0 14 15 9 5 4 5 3 4 7 7 7 5 6 5 3 4 5 6 5 4 3 2 1 2 2 2 3 4 4 5 5 6
20 16 10 11 7 7 9 9 8 8 7 2 7 12 10 14 15 6 -10 -15 2 9 6 8 7 7 10 7 2 7 15 16 18 18 17 18 17 18 14 11 10 9 13 11 10 13 7 7 8 7 8 7 5 3 7 9 3 7 10 8 7 13 26 15 -0 11 17 9 4 4 3 2 5 5 6 7 5 5 5 3 2 4 5 5 4 3 2 2 2 3 2 3 4 3 5 5 5
13 16 15 14 9 8 5 6 13 14 6 -1 11 20 12 10 18 20 8 2 12 12 8 12 7 7 14 14 11 12 13 13 18 19 20 18 12 17 19 13 8 7 10 9 8 10 8 8 9 8 7 7 7 4 7 10 5 5 8 5 2 15 34 20 -0 9 17 8 3 3 0 1 6 5 4 6 6 5 5 4 2 2 4 4 5 3 2 4 3 3 3 2 4 3 3 5 6
9 13 14 14 16 19 11 14 19 7 4 8 9 12 15 14 8 11 17 15 14 11 12 14 10 10 10 9 11 11 11 11 13 14 15 17 16 18 20 16 12 10 8 10 9 9 8 9 8 8 7 4 7 8 6 8 8 3 3 3 0 10 24 13 4 13 15 9 4 1 1 2 5 6 4 3 3 4 3 5 5 4 5 3 4 5 3 4 4 4 4 2 3 4 4 4 6
13 9 11 12 11 13 13 15 12 -1 3 11 8 8 9 10 9 10 12 7 3 2 6 9 9 10 6 8 10 7 9 11 13 13 10 12 16 19 20 17 14 12 9 9 10 9 9 9 9 8 5 3 7 10 7 8 12 3 -5 1 3 11 21 13 10 11 9 12 9 1 2 3 6 6 3 0 0 5 4 4 7 5 5 4 3 5 4 3 4 5 5 5 4 4 4 4 5
13 7 10 14 8 4 8 10 4 -1 8 15 15 14 10 8 10 11 11 9 6 5 10 17 16 12 9 9 10 8 8 8 11 12 10 11 12 16 20 18 15 14 12 11 9 10 10 8 10 9 5 3 4 9 9 5 12 11 -1 -3 -2 7 16 14 18 13 1 7 13 13 9 3 8 8 0 1 2 6 7 0 0 0 -0 4 4 4 6 3 4 5 4 5 5 3 3 3 5
6 8 10 11 9 5 6 10 9 8 13 15 14 18 23 19 16 17 7 -1 8 12 10 11 12 12 12 11 12 15 13 13 15 12 12 13 11 14 17 18 17 14 13 12 10 11 11 10 10 9 6 2 2 8 10 3 5 13 11 2 -7 -8 -5 -3 14 20 4 2 7 15 18 5 5 5 -3 3 4 3 9 4 2 3 3 5 6 5 7 5 4 5 5 5 6 5 4 4 5
6 10 11 10 10 8 8 9 8 10 12 14 13 13 21 19 19 23 6 -10 1 12 10 9 9 6 5 6 8 9 9 10 11 11 14 14 12 14 15 16 18 16 15 13 10 11 13 12 9 9 9 4 2 4 8 6 -2 2 15 14 2 -4 -3 -4 6 18 15 10 4 13 26 14 3 4 -0 2 5 3 6 6 5 8 8 7 7 8 7 6 6 6 6 7 8 8 6 5 4
7 9 9 10 15 10 9 8 5 8 7 13 17 8 11 18 15 11 7 6 8 8 10 11 12 11 9 10 10 10 10 10 9 8 11 12 13 15 14 15 17 16 17 14 12 12 12 14 9 8 10 9 6 2 4 8 -5 -10 3 17 21 15 11 8 1 6 18 14 3 9 26 21 5 3 3 0 3 5 5 6 7 7 9 8 7 7 6 6 7 7 6 7 10 11 8 4 3
6 9 4 7 18 13 9 9 9 11 5 14 26 9 1 14 13 6 8 14 11 6 5 4 10 17 15 14 13 13 14 14 15 15 13 12 13 15 14 15 16 16 17 15 15 14 12 16 12 8 10 10 11 8 3 4 0 -6 -12 -3 17 17 17 27 5 -9 17 25 11 7 11 14 10 1 1 0 -2 5 9 7 8 7 5 6 6 5 6 7 7 6 5 7 10 11 8 4 3
8 10 2 3 13 12 12 10 8 12 5 6 17 11 8 13 8 4 6 12 17 10 -4 -4 8 9 6 7 9 11 12 12 14 14 15 15 14 16 15 14 15 15 15 15 15 15 14 16 14 10 11 10 13 16 10 3 1 2 -8 -18 -11 -13 -4 32 25 -6 7 23 21 23 12 6 13 5 -1 4 2 6 13 9 8 7 4 5 6 6 8 9 7 5 5 8 11 11 7 4 3
8 8 4 6 12 15 20 15 7 9 8 12 17 14 14 9 -0 3 8 16 22 3 -15 -3 10 4 2 8 9 11 12 11 11 10 13 14 11 14 15 15 16 15 16 16 13 14 13 14 16 12 12 12 13 18 17 9 3 3 3 -3 -7 -17 -23 7 30 8 -2 7 17 38 35 10 5 5 2 8 8 8 12 11 9 6 3 6 7 8 10 9 7 5 5 8 10 10 7 4 2
7 4 4 5 7 10 17 21 13 2 7 23 21 7 4 1 -0 6 8 13 16 0 -6 8 11 6 8 11 11 12 13 13 12 10 11 10 8 11 13 13 12 12 15 16 14 15 12 12 14 11 10 12 13 19 18 12 11 5 4 6 5 2 -12 -7 18 10 -6 3 14 33 40 11 -8 -4 0 2 7 11 10 9 10 5 4 8 8 8 8 6 4 1 2 9 12 8 6 5 4
8 2 -0 0 3 5 10 22 17 1 6 19 14 6 8 4 -1 2 5 9 10 5 4 7 6 7 8 7 8 9 12 14 12 10 12 14 15 16 17 16 14 11 10 11 11 13 11 11 12 9 9 9 10 18 18 14 15 8 2 4 3 8 4 -4 9 12 -4 -5 9 26 30 13 4 8 6 2 6 10 9 6 8 5 3 6 6 6 7 4 1 1 4 10 13 9 6 6 5
9 5 2 -1 2 5 6 11 10 5 10 14 11 8 5 -0 -3 6 15 14 11 8 8 8 9 8 4 5 9 9 11 13 9 7 7 7 9 11 13 16 19 19 16 15 15 14 13 11 11 8 6 7 7 12 16 15 16 12 5 5 4 7 9 2 1 10 8 -8 -10 10 21 25 31 18 2 7 11 5 4 8 7 3 1 2 3 5 7 3 -1 4 10 12 12 10 6 6 6
17 16 12 6 5 6 4 2 2 4 5 7 8 4 -1 1 6 12 10 2 3 7 6 8 8 5 6 10 10 10 12 12 9 10 9 6 5 2 1 3 11 19 21 21 22 21 21 19 16 14 8 5 6 8 12 13 15 15 8 5 6 4 7 10 1 0 15 7 -18 -17 -3 12 29 20 -3 -1 10 4 2 9 10 3 1 2 3 4 4 2 -0 4 9 9 12 12 6 6 6
19 16 14 16 17 10 6 4 1 1 4 7 9 5 3 5 10 16 9 1 7 10 7 9 5 1 10 15 15 14 15 15 13 15 16 14 13 8 5 6 8 11 13 17 19 20 22 24 23 21 17 11 7 8 10 10 12 16 13 5 6 7 4 8 7 -1 9 20 2 -14 -9 1 19 30 17 1 3 7 4 7 10 4 0 3 4 3 3 1 -1 4 10 8 8 12 10 7 7
17 17 13 14 15 10 8 7 4 4 10 10 6 10 16 10 7 10 9 12 16 7 3 8 4 -1 3 9 14 15 13 13 12 13 14 14 16 15 13 14 13 11 13 15 17 19 19 22 24 23 23 20 15 12 11 10 9 12 16 9 3 9 7 4 7 2 2 18 17 3 6 15 12 11 16 10 4 9 9 8 9 5 0 3 4 2 4 5 -0 2 10 8 4 9 11 9 7
14 14 11 8 9 13 16 13 11 12 14 9 5 15 18 4 0 9 13 14 7 -2 1 7 5 3 3 4 9 11 11 13 11 11 13 14 16 16 16 19 18 18 21 21 20 21 19 17 19 21 22 23 21 18 16 14 11 9 14 13 7 7 9 5 3 2 4 10 12 3 -1 6 5 0 10 15 7 9 15 10 7 6 2 3 5 2 4 7 4 2 5 4 3 6 8 9 8
9 5 7 10 10 13 16 14 13 11 9 6 5 11 7 -1 15 34 27 6 -6 -4 3 2 2 7 6 4 6 9 11 11 10 11 10 11 12 13 16 21 21 18 19 20 19 21 22 19 15 15 18 21 22 21 20 18 16 12 10 11 12 9 7 7 4 2 1 -3 3 10 -0 -6 1 4 8 12 9 13 19 13 7 6 2 2 4 2 4 6 3 3 4 3 4 4 4 6 7
4 2 6 12 10 9 10 10 13 12 11 10 7 7 4 4 13 11 -6 -14 -8 2 5 3 6 7 5 6 7 9 11 9 10 10 7 7 8 10 13 16 18 17 14 13 11 14 21 24 21 16 14 18 21 21 23 22 19 16 11 9 12 13 8 7 8 6 -2 -6 -2 2 8 10 1 -5 4 13 18 25 23 14 11 9 4 3 3 1 3 5 2 2 5 4 4 6 4 3 6
1 3 8 9 6 7 8 8 11 12 12 13 10 9 8 6 2 -6 -9 -3 1 3 5 5 6 6 6 11 12 9 7 8 9 8 6 6 5 7 11 14 16 16 13 10 10 11 13 19 25 22 15 16 21 22 22 22 22 18 14 10 9 13 12 5 10 11 3 7 1 -16 5 26 0 -10 12 13 13 36 41 22 10 8 4 2 2 2 2 3 2 1 3 6 5 5 5 3 4
4 5 9 10 8 8 10 10 10 10 11 11 6 6 10 7 3 3 8 8 4 5 7 5 6 8 8 12 13 6 4 6 8 7 6 5 5 5 8 11 15 16 17 17 15 14 12 11 19 24 19 14 17 24 26 24 23 20 15 12 8 10 13 9 10 8 -2 7 11 -5 8 25 -4 -15 11 8 -0 30 49 31 12 7 4 4 4 2 1 2 3 1 0 4 5 4 6 7 5
Height
5830 5830 5831 5832 5832 5833 5833 5832 5833 5834 5835 5835 5837 5839 5843 5846 5846 5847 5849 5851 5848 5847 5848 5846 5845 5845 5847 5847 5847 5848 5846 5845 5847 5848 5848 5849 5850 5851 5852 5853 5854 5855 5856 5857 5857 5858 5859 5860 5860 5861 5862 5862 5863 5864 5864 5865 5865 5866 5867 5866 5866 5865 5866 5866 5867 5867 5868 5868 5868 5868 5868 5869 5869 5869 5868 5868 5868 5868 5869 5869 5869 5870 5870 5870 5869 5869 5869 5869 5869 5869 5869 5868 5868 5867 5867 5867 5866
5827 5828 5829 5829 5829 5830 5830 5828 5829 5831 5832 5833 5835 5838 5841 5843 5844 5845 5849 5850 5847 5846 5844 5844 5844 5842 5845 5845 5844 5845 5843 5842 5846 5849 5848 5849 5850 5851 5851 5852 5854 5855 5855 5856 5857 5857 5858 5859 5859 5860 5860 5861 5862 5862 5863 5864 5864 5865 5865 5866 5865 5865 5865 5865 5866 5866 5867 5867 5867 5867 5868 5868 5868 5868 5868 5867 5867 5868 5868 5869 5869 5870 5870 5870 5869 5869 5869 5869 5869 5869 5868 5868 5868 5867 5867 5867 5866
5824 5825 5825 5826 5826 5827 5827 5825 5825 5828 5828 5830 5832 5836 5838 5840 5842 5843 5846 5846 5842 5842 5841 5843 5845 5841 5842 5842 5841 5840 5839 5841 5847 5849 5848 5848 5849 5849 5850 5851 5853 5854 5855 5855 5856 5856 5857 5858 5858 5859 5859 5860 5860 5861 5862 5863 5863 5864 5864 5864 5864 5864 5864 5865 5865 5865 5866 5866 5867 5867 5867 5867 5867 5867 5867 5867 5867 5867 5868 5868 5869 5869 5870 5870 5869 5869 5869 5869 5869 5868 5868 5868 5867 5867 5867 5866 5866
5820 5822 5822 5823 5823 5823 5825 5822 5821 5823 5824 5826 5829 5833 5836 5838 5842 5840 5839 5839 5837 5838 5840 5842 5842 5840 5840 5839 5837 5837 5836 5839 5846 5847 5847 5847 5847 5847 5848 5849 5851 5852 5853 5854 5855 5855 5856 5857 5857 5858 5858 5859 5859 5860 5861 5861 5862 5862 5863 5863 5863 5864 5864 5864 5864 5865 5865 5865 5866 5866 5866 5866 5867 5867 5867 5866 5866 5867 5867 5868 5868 5869 5869 5869 5869 5869 5869 5869 5868 5868 5868 5867 5867 5867 5866 5866 5866
5817 5818 5819 5820 5820 5820 5821 5820 5818 5818 5821 5824 5827 5831 5834 5836 5839 5838 5834 5834 5834 5834 5837 5839 5839 5839 5836 5834 5834 5834 5835 5839 5843 5844 5845 5845 5844 5845 5845 5847 5848 5849 5851 5852 5853 5854 5855 5855 5856 5857 5857 5857 5858 5859 5859 5860 5861 5861 5862 5862 5862 5862 5863 5863 5863 5864 5864 5864 5865 5865 5865 5866 5866 5866 5866 5866 5866 5866 5867 5867 5868 5868 5869 5869 5869 5869 5868 5868 5868 5868 5867 5867 5867 5866 5866 5866 5866
5814 5815 5815 5815 5816 5817 5816 5816 5815 5815 5818 5822 5824 5828 5831 5833 5834 5835 5833 5832 5832 5832 5835 5836 5838 5838 5833 5831 5831 5831 5834 5837 5839 5840 5842 5844 5842 5842 5843 5845 5847 5848 5849 5850 5851 5852 5853 5854 5855 5855 5856 5856 5857 5858 5858 5859 5860 5860 5861 5861 5861 5862 5862 5862 5862 5863 5863 5864 5864 5864 5864 5865 5865 5865 5865 5865 5865 5865 5866 5867 5867 5868 5868 5868 5868 5869 5868 5868 5868 5867 5867 5867 5866 5866 5866 5866 5866
5811 5811 5812 5812 5813 5813 5812 5812 5813 5814 5817 5819 5821 5825 5827 5829 5830 5830 5830 5829 5830 5832 5833 5834 5836 5836 5833 5830 5828 5828 5831 5834 5835 5836 5838 5841 5841 5842 5843 5844 5845 5846 5847 5848 5849 5851 5852 5853 5854 5854 5855 5855 5856 5857 5857 5858 5858 5859 5859 5860 5860 5861 5861 5861 5861 5862 5862 5863 5863 5863 5863 5864 5865 5865 5865 5864 5864 5865 5865 5866 5867 5867 5867 5868 5868 5868 5868 5868 5868 5867 5867 5867 5866 5866 5866 5865 5866
5807 5808 5808 5808 5809 5809 5808 5809 5810 5812 5814 5818 5819 5822 5823 5823 5825 5825 5825 5826 5827 5829 5829 5830 5833 5834 5833 5829 5825 5826 5827 5830 5831 5832 5835 5836 5838 5841 5842 5841 5842 5842 5843 5845 5846 5848 5850 5851 5852 5853 5854 5854 5855 5856 5856 5856 5857 5858 5858 5859 5859 5860 5860 5860 5860 5861 5861 5862 5862 5862 5862 5863 5864 5864 5864 5864 5864 5864 5865 5865 5866 5867 5867 5867 5867 5868 5868 5868 5868 5867 5867 5867 5866 5866 5866 5865 5865
5804 5805 5805 5804 5805 5805 5806 5806 5808 5810 5812 5815 5816 5819 5821 5819 5820 5821 5821 5823 5823 5824 5826 5826 5829 5829 5829 5827 5823 5824 5825 5826 5828 5829 5831 5833 5835 5837 5839 5840 5839 5838 5836 5839 5842 5844 5847 5848 5850 5851 5852 5853 5854 5854 5855 5856 5856 5857 5857 5858 5858 5859 5859 5859 5859 5860 5860 5861 5861 5861 5861 5861 5862 5864 5864 5863 5863 5863 5864 5864 5865 5866 5867 5867 5867 5867 5867 5868 5867 5867 5867 5866 5866 5865 5865 5865 5865
5801 5801 5802 5801 5801 5802 5803 5804 5805 5808 5809 5812 5814 5816 5818 5818 5817 5818 5819 5819 5819 5822 5823 5823 5825 5825 5826 5827 5821 5822 5824 5824 5824 5827 5828 5830 5832 5833 5836 5838 5840 5838 5833 5835 5838 5841 5844 5846 5848 5849 5851 5851 5852 5853 5854 5854 5855 5855 5856 5857 5857 5857 5858 5858 5859 5859 5859 5860 5860 5860 5861 5860 5861 5863 5863 5863 5863 5863 5863 5864 5865 5865 5866 5866 5867 5867 5867 5867 5867 5867 5866 5866 5866 5865 5865 5865 5865
5798 5798 5799 5798 5798 5798 5800 5801 5803 5805 5807 5809 5811 5813 5814 5816 5816 5814 5815 5816 5817 5819 5821 5821 5822 5822 5824 5826 5819 5816 5820 5821 5821 5823 5826 5827 5829 5832 5833 5834 5837 5839 5836 5835 5837 5839 5841 5844 5846 5847 5849 5850 5851 5851 5852 5853 5853 5854 5855 5855 5856 5856 5856 5857 5857 5858 5858 5859 5859 5859 5860 5860 5860 5861 5862 5862 5862 5862 5863 5863 5864 5864 5865 5866 5866 5866 5866 5867 5867 5867 5866 5866 5865 5865 5865 5865 5865
5794 5795 5795 5795 5795 5796 5798 5799 5800 5802 5805 5806 5808 5810 5810 5812 5813 5811 5811 5812 5814 5816 5818 5819 5819 5819 5821 5822 5816 5812 5813 5817 5819 5821 5824 5825 5827 5830 5831 5832 5833 5835 5836 5836 5836 5837 5839 5842 5844 5845 5846 5848 5849 5849 5850 5851 5852 5852 5853 5854 5854 5855 5855 5856 5856 5857 5857 5858 5858 5858 5859 5859 5859 5860 5861 5862 5862 5862 5862 5863 5863 5864 5864 5865 5866 5866 5866 5866 5866 5866 5866 5866 5865 5865 5865 5864 5864
5791 5792 5791 5791 5793 5794 5795 5796 5797 5799 5801 5803 5805 5807 5808 5809 5811 5811 5810 5808 5810 5812 5815 5816 5816 5817 5818 5816 5811 5810 5809 5813 5818 5819 5821 5823 5824 5827 5828 5830 5831 5832 5834 5835 5835 5837 5838 5840 5842 5843 5844 5846 5846 5847 5848 5849 5849 5850 5851 5852 5852 5853 5854 5854 5855 5855 5856 5857 5857 5857 5857 5858 5858 5858 5860 5861 5861 5861 5861 5862 5863 5863 5864 5864 5865 5865 5865 5866 5866 5866 5866 5866 5865 5865 5865 5864 5864
5787 5788 5787 5788 5789 5790 5792 5793 5794 5796 5797 5801 5803 5805 5806 5807 5808 5809 5808 5806 5806 5808 5811 5813 5813 5813 5815 5812 5807 5808 5807 5809 5815 5816 5817 5820 5822 5824 5826 5827 5829 5831 5832 5833 5835 5836 5837 5838 5840 5841 5842 5843 5844 5845 5845 5846 5847 5847 5848 5849 5850 5851 5852 5853 5853 5854 5855 5855 5856 5856 5856 5856 5856 5857 5858 5860 5860 5860 5861 5861 5862 5863 5864 5864 5864 5865 5865 5865 5865 5865 5866 5866 5866 5865 5865 5864 5863
5784 5783 5783 5784 5785 5786 5788 5790 5792 5792 5794 5797 5800 5803 5804 5803 5804 5804 5803 5803 5803 5804 5807 5809 5809 5810 5812 5808 5804 5806 5806 5807 5810 5812 5814 5816 5818 5821 5823 5825 5826 5829 5830 5832 5833 5834 5835 5835 5837 5838 5839 5841 5842 5842 5843 5843 5844 5845 5846 5846 5847 5848 5850 5851 5851 5852 5853 5854 5854 5855 5855 5855 5855 5855 5856 5858 5859 5859 5860 5860 5861 5862 5863 5863 5864 5864 5864 5864 5864 5865 5865 5865 5866 5865 5865 5864 5863
5779 5779 5779 5780 5782 5783 5785 5787 5788 5788 5791 5794 5795 5800 5802 5800 5799 5799 5799 5799 5800 5801 5803 5805 5806 5808 5809 5804 5801 5804 5805 5805 5807 5808 5811 5813 5815 5817 5819 5821 5823 5825 5827 5829 5830 5830 5831 5832 5833 5835 5836 5837 5838 5839 5840 5841 5841 5842 5843 5844 5845 5846 5847 5848 5849 5850 5851 5852 5853 5853 5854 5854 5853 5854 5855 5856 5857 5858 5859 5859 5860 5861 5862 5863 5863 5863 5864 5864 5864 5864 5865 5865 5865 5865 5865 5864 5863
5774 5774 5774 5776 5778 5779 5781 5782 5784 5786 5788 5790 5792 5797 5800 5797 5794 5795 5795 5795 5796 5798 5800 5802 5803 5805 5805 5801 5798 5800 5802 5804 5805 5805 5807 5809 5810 5813 5816 5818 5820 5822 5823 5825 5826 5826 5826 5827 5829 5830 5832 5833 5834 5835 5836 5837 5838 5839 5840 5842 5842 5843 5845 5846 5847 5848 5849 5850 5851 5852 5853 5853 5852 5853 5854 5855 5856 5857 5857 5858 5859 5861 5861 5862 5862 5863 5863 5863 5863 5864 5864 5865 5865 5865 5864 5864 5863
5768 5769 5770 5772 5774 5775 5776 5778 5781 5783 5783 5786 5790 5793 5795 5794 5792 5792 5791 5789 5792 5795 5797 5798 5799 5800 5801 5799 5795 5796 5798 5801 5802 5803 5804 5804 5806 5809 5812 5815 5818 5820 5820 5823 5824 5823 5821 5822 5824 5826 5827 5829 5830 5832 5833 5834 5835 5836 5838 5839 5840 5840 5842 5844 5845 5846 5847 5849 5850 5851 5852 5852 5852 5852 5853 5854 5855 5856 5856 5857 5858 5860 5860 5861 5862 5862 5862 5862 5863 5863 5864 5864 5865 5865 5864 5863 5863
5764 5765 5765 5767 5768 5770 5772 5774 5776 5776 5778 5781 5784 5787 5789 5790 5788 5788 5786 5786 5788 5791 5794 5795 5796 5797 5799 5799 5793 5790 5795 5799 5800 5798 5799 5802 5803 5805 5808 5811 5814 5817 5819 5820 5821 5819 5818 5818 5819 5821 5823 5824 5826 5828 5829 5830 5832 5833 5835 5836 5837 5838 5840 5842 5843 5844 5845 5847 5849 5850 5850 5851 5851 5852 5852 5853 5854 5855 5856 5856 5857 5858 5859 5860 5861 5861 5861 5862 5862 5862 5863 5863 5864 5864 5864 5863 5862
5760 5760 5761 5762 5763 5765 5767 5769 5771 5771 5772 5775 5777 5780 5783 5784 5782 5781 5781 5781 5783 5786 5790 5792 5794 5795 5799 5799 5791 5786 5790 5794 5797 5795 5795 5799 5802 5803 5804 5806 5810 5813 5814 5814 5814 5813 5812 5813 5815 5817 5819 5821 5822 5825 5827 5828 5829 5830 5832 5834 5835 5836 5838 5840 5841 5842 5844 5845 5847 5848 5849 5850 5850 5851 5851 5852 5853 5854 5855 5855 5856 5857 5858 5859 5860 5860 5861 5861 5861 5862 5862 5863 5863 5864 5863 5862 5862
5755 5755 5756 5758 5759 5760 5762 5766 5769 5767 5765 5767 5770 5772 5774 5777 5778 5777 5777 5778 5781 5783 5786 5789 5791 5792 5797 5798 5790 5785 5783 5786 5792 5792 5792 5795 5799 5801 5800 5801 5805 5806 5806 5809 5811 5811 5810 5810 5812 5814 5815 5817 5819 5822 5824 5826 5827 5828 5829 5832 5833 5835 5837 5838 5840 5841 5842 5843 5845 5846 5847 5848 5849 5849 5850 5851 5852 5853 5853 5854 5855 5856 5857 5858 5859 5859 5860 5860 5860 5861 5861 5862 5862 5863 5863 5862 5861
5750 5751 5752 5754 5755 5755 5758 5760 5761 5759 5759 5760 5762 5766 5768 5770 5770 5771 5773 5774 5777 5779 5782 5786 5789 5790 5794 5794 5788 5783 5779 5780 5785 5788 5788 5791 5795 5797 5796 5798 5801 5801 5803 5808 5810 5811 5812 5812 5813 5814 5813 5813 5815 5819 5822 5824 5825 5827 5828 5830 5832 5833 5835 5837 5838 5839 5840 5842 5843 5844 5845 5846 5847 5848 5848 5849 5850 5851 5852 5853 5854 5855 5856 5857 5857 5858 5858 5859 5859 5860 5860 5861 5861 5862 5862 5861 5861
5747 5748 5749 5750 5751 5751 5752 5751 5750 5751 5751 5751 5754 5758 5760 5761 5762 5763 5764 5767 5769 5772 5775 5779 5783 5785 5788 5789 5782 5777 5776 5777 5781 5784 5785 5788 5791 5792 5793 5795 5797 5798 5802 5805 5807 5809 5810 5810 5811 5813 5814 5812 5813 5815 5819 5822 5824 5826 5827 5828 5829 5831 5833 5835 5836 5837 5839 5840 5841 5842 5843 5844 5845 5846 5847 5847 5849 5850 5851 5852 5852 5853 5854 5855 5856 5857 5857 5858 5858 5859 5859 5860 5860 5861 5861 5860 5860
5745 5746 5745 5747 5748 5745 5744 5745 5746 5748 5746 5746 5751 5754 5754 5757 5759 5759 5760 5764 5765 5767 5770 5773 5777 5778 5777 5779 5777 5773 5774 5777 5778 5781 5782 5784 5787 5789 5791 5793 5794 5796 5800 5801 5801 5803 5804 5807 5807 5809 5812 5813 5814 5815 5817 5819 5821 5824 5825 5826 5827 5829 5831 5833 5834 5836 5837 5838 5840 5840 5841 5842 5843 5844 5845 5846 5847 5848 5849 5850 5851 5851 5853 5854 5855 5855 5856 5856 5857 5858 5858 5859 5859 5860 5860 5860 5859
5743 5743 5743 5745 5745 5740 5740 5744 5744 5746 5745 5746 5750 5752 5752 5754 5755 5755 5758 5760 5761 5763 5767 5769 5771 5775 5773 5772 5773 5773 5774 5774 5773 5776 5780 5781 5784 5786 5789 5791 5791 5793 5795 5797 5797 5799 5801 5803 5805 5807 5811 5813 5815 5816 5816 5817 5818 5821 5823 5823 5825 5827 5829 5831 5832 5833 5835 5836 5838 5839 5840 5841 5842 5842 5843 5844 5845 5846 5847 5848 5849 5850 5851 5852 5853 5854 5855 5855 5856 5856 5857 5858 5858 5859 5859 5859 5858
5741 5740 5741 5741 5741 5738 5739 5741 5741 5742 5744 5744 5745 5747 5749 5749 5750 5751 5754 5756 5758 5759 5762 5763 5764 5769 5769 5766 5770 5772 5771 5771 5771 5772 5775 5778 5780 5783 5786 5788 5790 5790 5791 5794 5795 5797 5797 5798 5800 5803 5807 5807 5809 5811 5813 5815 5815 5817 5819 5821 5822 5824 5827 5828 5830 5831 5832 5834 5835 5837 5838 5839 5840 5841 5841 5842 5844 5844 5846 5847 5847 5848 5849 5850 5851 5852 5853 5854 5854 5855 5856 5856 5857 5857 5858 5858 5857
5739 5738 5738 5738 5738 5737 5737 5738 5738 5739 5741 5741 5742 5743 5744 5745 5746 5747 5751 5753 5753 5754 5756 5758 5758 5761 5763 5761 5765 5769 5768 5769 5771 5768 5768 5774 5777 5778 5781 5785 5787 5788 5789 5791 5792 5793 5793 5793 5794 5797 5800 5800 5800 5802 5806 5810 5812 5814 5816 5818 5819 5822 5824 5825 5827 5828 5830 5832 5833 5835 5836 5837 5838 5839 5840 5840 5842 5843 5844 5845 5846 5846 5847 5848 5850 5851 5851 5852 5853 5854 5854 5855 5855 5856 5856 5856 5856
5737 5737 5736 5736 5736 5736 5736 5736 5736 5736 5738 5739 5739 5741 5742 5743 5743 5744 5749 5747 5744 5748 5752 5753 5754 5755 5759 5760 5761 5764 5766 5768 5769 5765 5764 5768 5770 5771 5775 5780 5783 5785 5787 5789 5788 5788 5788 5790 5791 5793 5795 5797 5798 5797 5799 5803 5807 5809 5812 5815 5817 5819 5821 5822 5824 5826 5828 5829 5831 5832 5834 5835 5836 5837 5838 5839 5840 5841 5842 5843 5844 5844 5845 5847 5848 5849 5849 5850 5851 5852 5853 5854 5854 5855 5855 5855 5855
5736 5735 5735 5735 5734 5734 5734 5734 5734 5735 5736 5736 5737 5740 5740 5741 5741 5742 5744 5741 5739 5746 5749 5749 5750 5753 5757 5758 5758 5759 5762 5764 5763 5762 5761 5761 5761 5765 5771 5776 5778 5780 5783 5785 5785 5784 5786 5789 5790 5791 5793 5795 5797 5798 5798 5800 5803 5806 5808 5811 5813 5815 5817 5820 5822 5824 5825 5826 5828 5829 5831 5832 5833 5834 5835 5837 5838 5839 5840 5842 5843 5843 5843 5845 5846 5847 5848 5849 5849 5851 5852 5852 5853 5853 5854 5854 5854
5735 5734 5734 5734 5734 5735 5734 5732 5733 5733 5734 5734 5735 5738 5738 5738 5739 5739 5738 5736 5738 5744 5745 5746 5748 5750 5751 5752 5752 5753 5755 5756 5757 5758 5757 5755 5756 5762 5769 5772 5773 5775 5777 5778 5780 5782 5785 5788 5787 5789 5792 5793 5795 5797 5798 5800 5803 5804 5805 5807 5809 5810 5813 5815 5819 5821 5822 5823 5824 5826 5827 5829 5830 5832 5833 5834 5835 5837 5838 5839 5841 5841 5842 5843 5845 5846 5846 5847 5848 5849 5850 5851 5851 5852 5852 5853 5853
5734 5733 5733 5733 5735 5736 5735 5732 5732 5733 5732 5732 5734 5736 5737 5738 5739 5736 5733 5734 5738 5740 5740 5743 5745 5745 5745 5747 5748 5749 5752 5754 5756 5756 5753 5752 5754 5759 5765 5767 5767 5770 5771 5772 5776 5779 5782 5784 5784 5786 5789 5791 5793 5794 5796 5798 5800 5803 5804 5804 5804 5806 5808 5811 5814 5817 5818 5820 5821 5823 5824 5826 5827 5829 5830 5831 5833 5834 5835 5837 5838 5839 5840 5842 5843 5844 5845 5846 5847 5847 5848 5849 5849 5850 5851 5851 5851
5733 5733 5734 5734 5736 5736 5734 5732 5731 5732 5732 5731 5733 5735 5736 5738 5738 5734 5732 5734 5736 5735 5737 5740 5741 5741 5742 5744 5745 5748 5751 5753 5754 5753 5749 5749 5749 5754 5761 5761 5761 5765 5766 5768 5772 5775 5777 5780 5781 5783 5787 5788 5790 5792 5793 5795 5797 5799 5801 5801 5802 5802 5804 5806 5809 5812 5815 5817 5818 5820 5822 5823 5824 5826 5827 5829 5830 5832 5833 5835 5836 5837 5838 5840 5842 5843 5844 5845 5846 5846 5847 5847 5848 5848 5849 5849 5850
5734 5734 5734 5734 5735 5734 5733 5731 5730 5731 5732 5731 5732 5733 5735 5736 5736 5732 5731 5733 5733 5732 5735 5736 5737 5738 5738 5740 5742 5744 5746 5747 5749 5748 5746 5744 5743 5748 5754 5756 5757 5759 5762 5764 5768 5772 5773 5775 5778 5781 5783 5784 5787 5789 5790 5792 5793 5795 5797 5798 5799 5799 5800 5802 5806 5809 5812 5814 5816 5818 5820 5822 5823 5824 5825 5827 5828 5829 5831 5832 5834 5835 5837 5838 5840 5841 5842 5844 5845 5845 5845 5846 5846 5847 5847 5848 5848
5734 5734 5733 5733 5733 5733 5733 5731 5730 5730 5730 5730 5731 5732 5732 5734 5734 5732 5731 5731 5730 5730 5731 5732 5733 5734 5735 5737 5739 5740 5740 5742 5744 5743 5741 5738 5737 5742 5747 5752 5753 5754 5758 5759 5763 5767 5769 5771 5774 5778 5779 5780 5783 5785 5786 5788 5790 5791 5793 5794 5797 5798 5798 5799 5802 5805 5809 5812 5814 5817 5818 5820 5821 5822 5824 5825 5826 5827 5829 5830 5832 5834 5835 5837 5838 5839 5840 5842 5843 5844 5844 5845 5845 5845 5846 5846 5847
5733 5732 5732 5732 5731 5731 5731 5731 5730 5728 5728 5728 5729 5730 5730 5731 5732 5732 5733 5730 5728 5728 5729 5730 5731 5732 5733 5734 5734 5734 5735 5736 5736 5735 5734 5733 5735 5739 5744 5750 5751 5750 5754 5755 5758 5762 5764 5767 5770 5773 5775 5776 5778 5780 5782 5784 5786 5789 5790 5791 5794 5796 5797 5798 5799 5802 5806 5809 5812 5814 5816 5818 5819 5820 5822 5823 5824 5826 5827 5829 5830 5832 5834 5835 5836 5837 5838 5839 5841 5842 5843 5843 5843 5844 5844 5845 5846
5733 5731 5731 5730 5730 5730 5730 5730 5729 5727 5727 5727 5727 5728 5728 5728 5729 5731 5732 5729 5726 5727 5727 5728 5729 5729 5730 5729 5728 5728 5729 5731 5731 5731 5732 5733 5735 5738 5740 5745 5747 5748 5751 5751 5753 5755 5758 5763 5765 5768 5770 5771 5774 5776 5777 5779 5782 5786 5787 5788 5791 5792 5794 5796 5797 5799 5802 5806 5809 5811 5814 5815 5816 5818 5820 5822 5823 5824 5825 5827 5828 5830 5831 5833 5834 5835 5836 5837 5838 5840 5841 5841 5842 5842 5843 5843 5844
5731 5730 5730 5729 5729 5729 5728 5728 5727 5726 5725 5725 5725 5726 5725 5725 5726 5727 5728 5726 5725 5725 5725 5725 5726 5726 5726 5726 5725 5726 5727 5730 5730 5729 5731 5733 5733 5732 5734 5738 5742 5745 5746 5747 5748 5749 5752 5756 5759 5762 5765 5767 5769 5771 5773 5775 5778 5781 5783 5785 5787 5788 5789 5792 5794 5795 5798 5802 5805 5807 5810 5812 5814 5815 5818 5819 5820 5821 5822 5824 5826 5827 5829 5830 5832 5833 5834 5835 5836 5838 5839 5839 5840 5840 5841 5842 5842
5730 5729 5728 5728 5727 5727 5726 5725 5725 5724 5724 5723 5723 5723 5723 5723 5723 5724 5724 5723 5723 5722 5721 5722 5723 5723 5724 5724 5724 5724 5725 5726 5726 5727 5728 5729 5728 5727 5729 5734 5738 5741 5741 5741 5742 5744 5746 5750 5754 5756 5759 5761 5763 5765 5768 5770 5773 5776 5778 5779 5781 5783 5783 5786 5789 5791 5792 5796 5799 5802 5806 5809 5811 5812 5815 5816 5817 5818 5820 5821 5823 5825 5826 5827 5829 5830 5831 5833 5834 5835 5836 5837 5838 5839 5839 5840 5841
5728 5727 5726 5726 5725 5724 5724 5723 5722 5722 5722 5722 5722 5721 5721 5721 5721 5721 5721 5721 5721 5719 5718 5719 5720 5721 5722 5722 5722 5722 5722 5722 5723 5724 5724 5724 5723 5724 5726 5730 5733 5736 5737 5735 5737 5740 5741 5743 5748 5751 5752 5754 5757 5760 5762 5765 5767 5771 5773 5774 5776 5778 5779 5782 5784 5785 5786 5789 5792 5796 5800 5805 5808 5809 5811 5813 5814 5815 5817 5819 5821 5823 5824 5825 5826 5827 5829 5830 5832 5833 5834 5835 5836 5837 5837 5838 5839
5727 5726 5725 5724 5723 5722 5722 5721 5720 5719 5720 5720 5720 5719 5719 5719 5719 5719 5718 5718 5717 5716 5717 5718 5718 5718 5719 5719 5720 5720 5720 5719 5720 5721 5721 5720 5720 5721 5723 5726 5727 5730 5732 5731 5732 5736 5737 5737 5742 5745 5746 5747 5751 5755 5757 5759 5761 5764 5768 5770 5772 5774 5777 5779 5779 5779 5781 5785 5788 5792 5796 5800 5804 5806 5807 5809 5811 5812 5814 5816 5818 5820 5821 5822 5824 5825 5827 5828 5830 5831 5832 5832 5833 5834 5835 5836 5836
5726 5725 5724 5723 5722 5721 5720 5719 5718 5718 5718 5717 5717 5717 5717 5716 5716 5717 5716 5715 5715 5714 5715 5716 5716 5716 5716 5715 5716 5716 5716 5716 5717 5717 5717 5717 5717 5718 5719 5721 5723 5724 5726 5727 5728 5731 5733 5733 5735 5739 5741 5742 5744 5748 5751 5753 5755 5758 5761 5763 5766 5769 5773 5775 5776 5776 5779 5783 5787 5789 5793 5797 5800 5802 5804 5806 5808 5810 5812 5813 5815 5817 5819 5820 5821 5823 5824 5826 5827 5828 5829 5830 5831 5832 5832 5833 5834
5726 5724 5723 5722 5721 5720 5719 5719 5717 5717 5716 5715 5714 5714 5714 5714 5714 5714 5714 5714 5713 5713 5713 5713 5713 5713 5712 5712 5712 5713 5713 5713 5713 5714 5713 5714 5714 5715 5715 5717 5718 5719 5721 5722 5724 5726 5728 5729 5729 5731 5735 5737 5738 5742 5745 5747 5750 5753 5754 5757 5761 5764 5767 5771 5774 5776 5778 5781 5783 5785 5788 5791 5795 5798 5800 5802 5804 5806 5808 5809 5811 5814 5815 5817 5818 5820 5821 5823 5824 5826 5827 5828 5828 5829 5830 5831 5832
5725 5724 5722 5721 5721 5719 5718 5717 5716 5715 5714 5713 5712 5712 5712 5712 5712 5711 5713 5713 5711 5710 5711 5710 5710 5709 5709 5709 5709 5709 5709 5709 5710 5710 5710 5711 5711 5711 5712 5713 5713 5715 5716 5718 5720 5721 5723 5725 5725 5724 5726 5731 5734 5736 5740 5743 5745 5748 5750 5752 5756 5760 5762 5765 5770 5773 5776 5778 5778 5779 5782 5786 5789 5792 5796 5798 5800 5802 5804 5805 5807 5810 5812 5813 5814 5816 5818 5820 5821 5822 5824 5825 5826 5826 5827 5829 5829
5723 5722 5721 5720 5719 5718 5717 5716 5715 5714 5713 5712 5711 5710 5710 5709 5709 5709 5711 5711 5708 5707 5709 5708 5707 5707 5706 5707 5707 5706 5706 5706 5706 5706 5707 5707 5707 5708 5708 5709 5709 5710 5712 5713 5715 5716 5717 5720 5721 5720 5719 5722 5727 5731 5735 5739 5741 5743 5746 5748 5750 5754 5757 5760 5765 5767 5770 5772 5772 5773 5776 5780 5784 5787 5791 5794 5796 5798 5801 5802 5804 5806 5808 5809 5810 5813 5815 5816 5818 5819 5821 5821 5822 5823 5824 5825 5826
5722 5721 5719 5718 5718 5717 5715 5714 5713 5712 5711 5710 5709 5709 5708 5707 5708 5708 5708 5708 5707 5706 5706 5705 5705 5705 5704 5705 5704 5703 5703 5703 5703 5703 5703 5703 5703 5704 5705 5705 5705 5706 5706 5708 5709 5711 5713 5714 5716 5716 5714 5714 5719 5725 5730 5734 5736 5737 5740 5743 5744 5748 5751 5754 5759 5761 5762 5764 5766 5768 5770 5773 5777 5782 5786 5789 5791 5795 5797 5799 5800 5802 5805 5806 5807 5809 5811 5813 5815 5816 5817 5818 5819 5820 5821 5822 5823
5720 5719 5718 5717 5716 5715 5714 5713 5712 5711 5709 5709 5709 5708 5707 5706 5706 5707 5707 5706 5705 5704 5703 5703 5702 5702 5702 5702 5701 5700 5700 5700 5700 5700 5700 5700 5700 5701 5701 5701 5701 5701 5701 5702 5704 5705 5707 5709 5710 5711 5710 5709 5711 5717 5723 5726 5730 5732 5734 5737 5738 5742 5745 5748 5752 5755 5757 5759 5761 5764 5766 5767 5771 5776 5781 5784 5787 5791 5793 5795 5797 5799 5801 5802 5803 5805 5807 5810 5812 5813 5814 5814 5815 5816 5817 5819 5820
5719 5718 5717 5716 5715 5713 5712 5711 5710 5709 5708 5708 5707 5707 5706 5704 5704 5705 5705 5703 5703 5703 5702 5702 5701 5700 5700 5699 5698 5698 5697 5697 5697 5697 5696 5697 5697 5696 5697 5697 5697 5697 5697 5698 5699 5700 5702 5704 5705 5705 5706 5706 5705 5710 5715 5718 5721 5725 5729 5731 5733 5737 5740 5743 5746 5749 5752 5754 5756 5760 5762 5764 5767 5771 5775 5778 5782 5786 5789 5792 5793 5795 5796 5798 5800 5802 5804 5806 5808 5809 5810 5811 5812 5813 5814 5816 5817
5717 5717 5715 5714 5713 5711 5710 5709 5708 5707 5706 5706 5706 5706 5705 5703 5702 5703 5703 5702 5702 5702 5701 5700 5700 5699 5698 5696 5694 5694 5695 5693 5693 5693 5693 5693 5693 5692 5693 5693 5694 5693 5693 5694 5694 5694 5696 5698 5699 5700 5702 5702 5701 5704 5708 5710 5713 5718 5724 5727 5730 5733 5736 5739 5742 5745 5748 5750 5751 5755 5758 5761 5764 5767 5769 5773 5777 5781 5784 5788 5790 5791 5792 5794 5796 5798 5800 5802 5804 5805 5806 5808 5809 5810 5811 5813 5815
5715 5715 5714 5712 5710 5710 5709 5708 5707 5706 5705 5705 5705 5704 5703 5702 5701 5701 5701 5701 5701 5700 5699 5699 5698 5697 5697 5695 5692 5690 5692 5691 5690 5690 5689 5688 5688 5688 5688 5689 5689 5689 5689 5689 5689 5689 5690 5691 5693 5695 5696 5697 5697 5698 5701 5703 5707 5712 5717 5722 5725 5729 5733 5736 5738 5741 5744 5745 5747 5750 5753 5756 5759 5762 5765 5769 5773 5777 5780 5783 5786 5787 5789 5791 5792 5794 5796 5798 5799 5801 5802 5804 5806 5807 5808 5810 5812
5714 5713 5713 5711 5709 5708 5707 5706 5705 5704 5704 5704 5704 5703 5701 5699 5699 5699 5699 5698 5699 5698 5698 5698 5697 5695 5695 5695 5691 5687 5689 5690 5687 5686 5686 5685 5685 5685 5684 5684 5685 5685 5684 5684 5684 5685 5685 5686 5688 5689 5690 5691 5692 5693 5695 5697 5701 5707 5711 5715 5720 5725 5728 5731 5733 5737 5740 5742 5743 5746 5749 5752 5754 5757 5761 5765 5769 5772 5775 5778 5781 5783 5785 5786 5787 5789 5792 5794 5795 5797 5798 5800 5802 5803 5804 5806 5808
5712 5711 5710 5709 5708 5707 5706 5705 5704 5703 5703 5703 5703 5701 5699 5697 5697 5697 5697 5696 5696 5696 5696 5695 5695 5694 5692 5692 5691 5686 5686 5687 5685 5684 5684 5683 5682 5682 5681 5681 5680 5680 5680 5679 5680 5680 5680 5680 5681 5682 5684 5686 5686 5688 5689 5690 5694 5700 5705 5708 5713 5719 5722 5725 5728 5732 5734 5737 5739 5741 5744 5747 5749 5752 5755 5760 5764 5767 5769 5773 5776 5778 5781 5782 5784 5785 5787 5789 5791 5793 5794 5796 5798 5799 5801 5803 5805
5710 5709 5708 5707 5707 5706 5705 5704 5703 5702 5702 5701 5702 5700 5697 5696 5696 5695 5695 5694 5694 5694 5693 5692 5692 5692 5690 5689 5688 5685 5684 5685 5683 5682 5681 5680 5679 5679 5678 5677 5676 5676 5675 5675 5674 5674 5674 5674 5674 5676 5678 5680 5680 5682 5684 5685 5687 5692 5698 5702 5706 5712 5716 5718 5721 5725 5728 5731 5734 5736 5739 5743 5746 5748 5751 5755 5758 5761 5764 5768 5770 5774 5777 5778 5780 5781 5782 5784 5786 5788 5790 5792 5793 5795 5798 5800 5801
5708 5707 5706 5706 5705 5704 5703 5702 5701 5701 5700 5700 5700 5699 5696 5694 5694 5693 5693 5692 5691 5691 5691 5689 5689 5688 5687 5686 5684 5683 5682 5681 5680 5679 5678 5677 5676 5675 5674 5673 5672 5671 5670 5670 5669 5668 5668 5668 5668 5670 5672 5673 5674 5676 5678 5680 5681 5684 5690 5696 5699 5704 5709 5711 5714 5719 5724 5727 5729 5731 5735 5739 5743 5745 5747 5750 5753 5755 5758 5762 5765 5768 5771 5773 5775 5776 5777 5779 5781 5783 5786 5787 5789 5791 5794 5796 5797
5707 5706 5705 5704 5703 5702 5701 5700 5700 5700 5699 5698 5698 5697 5694 5692 5692 5691 5690 5689 5689 5689 5688 5687 5686 5684 5683 5683 5682 5680 5679 5678 5677 5676 5674 5673 5672 5671 5670 5668 5667 5666 5665 5665 5664 5663 5663 5663 5663 5664 5665 5665 5666 5668 5670 5674 5676 5677 5681 5687 5692 5697 5701 5703 5708 5713 5718 5721 5724 5726 5730 5734 5738 5741 5742 5744 5748 5750 5751 5754 5758 5762 5765 5768 5769 5770 5772 5773 5775 5778 5781 5783 5785 5787 5789 5792 5793
5705 5705 5704 5703 5702 5701 5700 5699 5698 5698 5697 5697 5696 5695 5692 5690 5690 5688 5687 5687 5687 5686 5685 5684 5683 5681 5679 5679 5678 5676 5675 5674 5673 5672 5671 5669 5668 5667 5665 5664 5663 5662 5660 5660 5659 5658 5658 5658 5657 5657 5657 5658 5659 5660 5663 5666 5669 5671 5673 5677 5683 5689 5693 5696 5701 5708 5712 5715 5718 5721 5725 5729 5732 5734 5734 5736 5740 5742 5743 5746 5750 5754 5758 5761 5762 5764 5766 5768 5770 5772 5775 5778 5780 5782 5785 5787 5789
5704 5703 5702 5701 5701 5700 5699 5698 5697 5696 5695 5694 5694 5694 5691 5689 5689 5687 5685 5685 5684 5683 5682 5681 5680 5677 5676 5675 5674 5673 5672 5671 5669 5668 5667 5665 5664 5662 5660 5659 5658 5657 5656 5655 5654 5654 5653 5652 5652 5651 5651 5651 5652 5653 5655 5657 5660 5664 5666 5669 5674 5680 5684 5688 5694 5701 5707 5709 5711 5715 5719 5723 5727 5728 5728 5728 5731 5733 5734 5737 5741 5745 5749 5753 5756 5758 5760 5763 5765 5767 5770 5773 5775 5777 5779 5782 5785
5702 5702 5701 5700 5699 5698 5697 5696 5695 5694 5693 5693 5692 5691 5689 5688 5687 5685 5684 5683 5682 5681 5680 5678 5676 5675 5673 5672 5670 5669 5668 5667 5666 5664 5663 5661 5660 5658 5656 5655 5653 5653 5652 5650 5649 5648 5647 5647 5646 5646 5645 5645 5645 5645 5645 5647 5651 5655 5658 5661 5666 5671 5676 5681 5687 5695 5702 5704 5706 5709 5713 5717 5720 5721 5722 5724 5725 5727 5728 5730 5734 5739 5743 5747 5750 5752 5754 5757 5760 5762 5765 5768 5771 5773 5775 5778 5781
5701 5700 5699 5699 5698 5696 5695 5695 5694 5693 5692 5691 5689 5688 5686 5686 5685 5683 5682 5681 5679 5678 5677 5676 5674 5672 5670 5669 5667 5666 5665 5664 5663 5661 5659 5657 5656 5654 5652 5650 5649 5648 5646 5645 5643 5642 5641 5641 5640 5639 5639 5639 5638 5638 5637 5639 5642 5646 5649 5652 5657 5662 5667 5673 5681 5688 5694 5697 5699 5703 5707 5712 5715 5715 5717 5719 5721 5723 5725 5729 5733 5737 5740 5743 5745 5746 5750 5753 5755 5757 5760 5764 5767 5770 5773 5776 5778